Location: Allentsteig
(48.6833°N, 15.3167°E)
Time: 23:14:30
(UTC+00:00)

COSMOS 2406 - Visible Passes

Search period start: 23 January 2021 00:00
Search period end: 02 February 2021 00:00
Orbit: 840 x 866 km, 71.0° (Epoch: 23 January)

Date Brightness Start Highest point End Pass type
(mag) Time Alt. Az. Time Alt. Az. Time Alt. Az.
23 Jan 4.0 16:52:41 10° NNW 16:57:45 30° NE 17:01:51 14° ESE visible
23 Jan 3.7 18:36:45 10° NW 18:42:27 60° WSW 18:44:01 44° SSW visible
24 Jan 4.0 16:41:11 10° NNW 16:46:17 30° NE 16:51:19 10° ESE visible
24 Jan 3.7 18:25:16 10° NW 18:30:58 59° WSW 18:34:24 24° S visible
25 Jan 4.0 16:29:41 10° NNW 16:34:47 31° NE 16:39:51 10° ESE visible
25 Jan 3.8 18:13:47 10° NW 18:19:28 58° WSW 18:25:05 10° S visible
26 Jan 4.0 16:18:11 10° NNW 16:23:18 31° NE 16:28:22 10° ESE visible
26 Jan 3.8 18:02:18 10° NW 18:07:58 57° WSW 18:13:35 10° S visible
27 Jan 3.9 17:50:48 10° NW 17:56:28 57° WSW 18:02:04 10° S visible
28 Jan 3.9 17:39:18 10° NW 17:44:58 56° WSW 17:50:34 10° S visible
29 Jan 4.0 17:27:49 10° NW 17:33:28 56° WSW 17:39:03 10° S visible
30 Jan 4.0 17:16:20 10° NW 17:21:58 55° WSW 17:27:33 10° S visible
31 Jan 4.1 17:04:51 10° NW 17:10:28 54° WSW 17:16:02 10° S visible
01 Feb 4.2 16:53:21 10° NW 16:58:58 54° WSW 17:04:32 10° S visible
